« Back
NWS Peachtree City, Ga » Text Product » GA Regional Weather Roundup


Printer-friendly Version
Current Version              Previous Versions:   1  2  3  4  5  6  7  8  9  

Regional Weather Roundup

455
ASUS42 KFFC 021510
RWRGA
WEATHER ROUNDUP FOR GEORGIA
NATIONAL WEATHER SERVICE PEACHTREE CITY GA
1100 AM EDT SUN AUG 02 2015

NOTE: "FAIR" INDICATES FEW OR NO CLOUDS BELOW 12,000 FEET WITH NO
SIGNIFICANT WEATHER AND/OR OBSTRUCTIONS TO VISIBILITY.

* = USE WITH CAUTION. THE STATIONS MARKED WITH AN ASTERISK MAY NOT
REPORT WEATHER SUCH AS PRECIPITATION, FOG, OR THUNDER AND ARE NOT
QUALITY CONTROLLED BY NWS.

THE REMARK "TC" DENOTES TEMPERATURE READING IN DEGREES CELSIUS.

GAZ001>058-021600-
NORTH GEORGIA

CITY           SKY/WX    TMP DP  RH WIND       PRES   REMARKS
ATLANTA        MOSUNNY   83  62  49 E10       29.98S
ATHENS         SUNNY     85  61  44 E8        29.98R
CHAMBLEE       SUNNY     85  61  44 VRB7      29.99R
PEACHTREE CITY SUNNY     85  66  53 VRB5      29.98R
ROME           SUNNY     82  66  58 E3        29.98S
WEST ATLANTA   SUNNY     84  60  44 E12       29.98R
GAINESVILLE    SUNNY     82  60  47 E12       30.03R
CARTERSVILLE   SUNNY     82  64  54 NE5       29.99S


CITY           SKY/WX    TMP DP  RH WIND       PRES   REMARKS
DALTON*        SUNNY     79  70  73 NE3       30.00R
LAWRENCEVILLE* SUNNY     84  59  42 E9        29.98R
MARIETTA       MOSUNNY   84  63  49 VRB5      29.99R
KENNESAW*      MOSUNNY   82  61  47 CALM      30.00
BLAIRSVILLE*     N/A     78  36  21 CALM      30.06S
$$

GAZ059>098-102>109-021600-
CENTRAL GEORGIA

CITY           SKY/WX    TMP DP  RH WIND       PRES   REMARKS
AUGUSTA-BUSH   MOSUNNY   85  75  72 SE6       29.94R HX  93
AUGUSTA-DANIEL PTSUNNY   82  74  76 CALM      29.96S
COLUMBUS       SUNNY     85  70  60 CALM      29.92S
MACON          CLOUDY    80  73  79 E8        29.94R
ROBINS AFB     CLOUDY    78  74  86 VRB3      29.94R


CITY           SKY/WX    TMP DP  RH WIND       PRES   REMARKS
LAGRANGE*      SUNNY     86  72  62 NE3       29.96S HX  92
SYLVANIA*      CLOUDY    80  78  92 E7        29.95S
MILLEDGEVILLE* PTSUNNY   82  72  69 CALM      29.95R
$$

GAZ099>101-110>166-021600-
SOUTH GEORGIA

CITY           SKY/WX    TMP DP  RH WIND       PRES   REMARKS
SAVANNAH       RAIN      79  73  83 SE9       29.94R FOG
VALDOSTA       CLOUDY    77  75  93 E5        29.89R
ALMA           CLOUDY    79  73  82 E6        29.92R
ST SIMONS      PTSUNNY   82  74  76 S7        29.91S
FT STEWART     PTSUNNY   90  73  58 SE6       29.84F HX  98
ALBANY         PTSUNNY   82  74  76 N9        29.92S
HUNTER AFB     LGT RAIN  75  75 100 NE2       29.91S FOG
MOODY AFB      CLOUDY    77  74  90 E6        29.89R
BRUNSWICK      PTSUNNY   81  75  83 N3        29.92F


CITY           SKY/WX    TMP DP  RH WIND       PRES   REMARKS
BAINBRIDGE*    CLOUDY    84  77  79 NE8       29.89R HX  94
MOULTRIE*      CLOUDY    81  73  78 E5        29.90S
VIDALIA*       CLOUDY    79  73  83 E3        29.94R
WAYCROSS*      CLOUDY    82  77  85 E5        29.92R
DOUGLAS*       CLOUDY    81  73  78 E6        29.93S
$$



USA.gov is the U.S. government's official web portal to all federal, state and local government web resources and services.